Total_Precipitation_Accumulation
0.04 0.09 0.32 0.41 0.37 0.37 0.41 0.42 0.40 0.40 0.43 0.47 0.47 0.49 0.47 0.46 0.42 0.40 0.42 0.43 0.41 0.46 0.55 0.63 0.67 0.66 0.60 0.56 0.53 0.48 0.45 0.41 0.36 0.30 0.30 0.34 0.33 0.28 0.24 0.22 0.20 0.30 0.37
0.04 0.09 0.27 0.33 0.34 0.38 0.41 0.40 0.36 0.37 0.39 0.42 0.42 0.45 0.48 0.44 0.42 0.43 0.43 0.44 0.45 0.48 0.53 0.60 0.64 0.64 0.57 0.54 0.56 0.50 0.43 0.32 0.26 0.22 0.20 0.22 0.29 0.31 0.30 0.28 0.27 0.35 0.35
0.04 0.09 0.20 0.29 0.32 0.40 0.41 0.37 0.34 0.33 0.34 0.39 0.43 0.45 0.47 0.45 0.43 0.43 0.42 0.44 0.48 0.53 0.55 0.59 0.57 0.55 0.54 0.55 0.52 0.49 0.43 0.32 0.20 0.17 0.15 0.21 0.30 0.37 0.38 0.33 0.31 0.34 0.34
0.05 0.08 0.14 0.27 0.32 0.40 0.42 0.40 0.38 0.35 0.35 0.40 0.44 0.45 0.47 0.50 0.48 0.43 0.43 0.49 0.53 0.58 0.62 0.60 0.55 0.55 0.58 0.55 0.45 0.42 0.43 0.36 0.21 0.13 0.09 0.20 0.38 0.49 0.44 0.39 0.34 0.34 0.37
0.06 0.09 0.17 0.28 0.33 0.38 0.43 0.47 0.47 0.45 0.43 0.43 0.44 0.43 0.45 0.48 0.48 0.46 0.47 0.52 0.54 0.54 0.56 0.58 0.56 0.58 0.55 0.49 0.40 0.37 0.47 0.46 0.28 0.09 0.09 0.14 0.32 0.64 0.47 0.43 0.40 0.36 0.36
0.06 0.10 0.19 0.30 0.37 0.41 0.46 0.53 0.55 0.54 0.55 0.54 0.52 0.50 0.52 0.53 0.52 0.48 0.47 0.48 0.47 0.49 0.53 0.52 0.52 0.55 0.55 0.49 0.40 0.42 0.54 0.58 0.30 0.13 0.15 0.17 0.31 0.63 0.55 0.49 0.44 0.39 0.37
0.06 0.11 0.18 0.33 0.42 0.45 0.49 0.54 0.58 0.62 0.67 0.67 0.67 0.66 0.63 0.62 0.60 0.59 0.55 0.49 0.43 0.44 0.47 0.50 0.50 0.52 0.55 0.51 0.46 0.55 0.64 0.59 0.31 0.29 0.21 0.20 0.35 0.60 0.64 0.59 0.52 0.47 0.42
0.09 0.14 0.23 0.41 0.50 0.50 0.52 0.58 0.62 0.64 0.70 0.72 0.74 0.74 0.70 0.66 0.65 0.67 0.66 0.57 0.46 0.39 0.38 0.39 0.40 0.46 0.48 0.47 0.50 0.62 0.64 0.41 0.20 0.15 0.14 0.19 0.35 0.61 0.86 0.81 0.64 0.54 0.48
0.15 0.19 0.28 0.42 0.54 0.59 0.59 0.60 0.62 0.65 0.68 0.71 0.74 0.76 0.73 0.65 0.65 0.65 0.65 0.58 0.49 0.43 0.39 0.35 0.35 0.36 0.37 0.40 0.46 0.49 0.43 0.28 0.16 0.20 0.17 0.23 0.36 0.69 1.02 0.98 0.77 0.61 0.53
0.22 0.27 0.34 0.46 0.53 0.57 0.62 0.64 0.62 0.63 0.65 0.67 0.69 0.72 0.67 0.62 0.61 0.60 0.55 0.50 0.47 0.48 0.45 0.38 0.35 0.35 0.31 0.29 0.32 0.33 0.28 0.22 0.14 0.20 0.25 0.26 0.29 0.64 1.04 1.05 0.91 0.75 0.66
0.31 0.39 0.44 0.53 0.62 0.66 0.67 0.66 0.67 0.66 0.67 0.66 0.66 0.65 0.66 0.64 0.62 0.59 0.52 0.47 0.47 0.47 0.44 0.40 0.36 0.34 0.29 0.24 0.22 0.22 0.19 0.15 0.17 0.24 0.28 0.25 0.31 0.64 1.03 1.10 1.02 0.90 0.83
0.31 0.38 0.46 0.56 0.65 0.73 0.71 0.73 0.77 0.69 0.67 0.63 0.58 0.56 0.59 0.61 0.60 0.55 0.54 0.50 0.49 0.49 0.47 0.46 0.42 0.36 0.30 0.24 0.25 0.25 0.17 0.13 0.19 0.19 0.20 0.19 0.34 0.66 1.00 1.14 1.12 1.02 0.98
0.30 0.38 0.48 0.57 0.67 0.76 0.75 0.74 0.75 0.70 0.65 0.63 0.60 0.62 0.66 0.67 0.63 0.62 0.61 0.57 0.57 0.54 0.58 0.57 0.57 0.47 0.43 0.41 0.41 0.33 0.24 0.22 0.19 0.17 0.15 0.17 0.27 0.52 0.89 1.12 1.20 1.19 1.19
0.36 0.42 0.50 0.62 0.72 0.79 0.81 0.77 0.73 0.67 0.62 0.61 0.58 0.61 0.68 0.70 0.66 0.63 0.62 0.57 0.57 0.57 0.60 0.63 0.64 0.58 0.53 0.47 0.46 0.41 0.37 0.32 0.24 0.21 0.18 0.18 0.18 0.30 0.54 0.83 1.08 1.26 1.33
0.35 0.42 0.52 0.62 0.73 0.80 0.89 0.87 0.78 0.68 0.60 0.57 0.56 0.54 0.55 0.59 0.59 0.56 0.50 0.45 0.46 0.47 0.50 0.52 0.51 0.52 0.53 0.50 0.45 0.41 0.40 0.37 0.31 0.25 0.21 0.19 0.16 0.20 0.31 0.51 0.80 1.17 1.41
0.31 0.38 0.49 0.63 0.73 0.82 0.86 0.92 0.89 0.81 0.70 0.64 0.59 0.52 0.48 0.48 0.48 0.48 0.45 0.37 0.34 0.34 0.34 0.35 0.35 0.35 0.38 0.41 0.39 0.36 0.33 0.33 0.34 0.33 0.30 0.28 0.20 0.19 0.24 0.40 0.61 0.90 1.26
0.30 0.40 0.48 0.63 0.74 0.83 0.88 0.90 0.95 0.95 0.89 0.78 0.66 0.60 0.53 0.50 0.49 0.49 0.47 0.42 0.36 0.36 0.37 0.36 0.33 0.31 0.30 0.32 0.34 0.34 0.31 0.30 0.33 0.37 0.36 0.35 0.30 0.24 0.23 0.32 0.48 0.68 0.99
0.36 0.43 0.51 0.60 0.71 0.78 0.91 0.99 0.95 0.97 0.93 0.85 0.77 0.71 0.64 0.57 0.53 0.54 0.53 0.47 0.44 0.43 0.42 0.43 0.40 0.37 0.33 0.31 0.33 0.36 0.34 0.33 0.33 0.37 0.40 0.36 0.35 0.30 0.26 0.28 0.39 0.57 0.81
0.39 0.45 0.51 0.57 0.66 0.77 0.88 1.03 1.08 1.05 1.00 0.90 0.81 0.78 0.74 0.69 0.59 0.56 0.56 0.53 0.50 0.49 0.47 0.46 0.44 0.42 0.40 0.38 0.38 0.38 0.39 0.36 0.34 0.36 0.39 0.42 0.43 0.39 0.38 0.31 0.32 0.43 0.62
0.42 0.48 0.55 0.63 0.71 0.82 0.96 1.03 1.12 1.12 1.04 0.97 0.89 0.82 0.81 0.78 0.71 0.62 0.57 0.57 0.57 0.56 0.53 0.49 0.48 0.48 0.46 0.43 0.42 0.40 0.40 0.41 0.41 0.38 0.43 0.52 0.52 0.45 0.44 0.44 0.39 0.33 0.39
0.43 0.50 0.56 0.62 0.71 0.83 0.93 0.97 0.95 1.02 0.99 0.93 0.88 0.89 0.89 0.86 0.81 0.75 0.67 0.60 0.61 0.61 0.58 0.52 0.48 0.48 0.47 0.46 0.48 0.46 0.43 0.40 0.37 0.35 0.39 0.51 0.62 0.64 0.59 0.59 0.59 0.51 0.42
0.40 0.47 0.55 0.57 0.64 0.70 0.73 0.82 0.89 0.90 0.93 0.93 0.88 0.90 0.94 0.94 0.86 0.82 0.77 0.68 0.59 0.58 0.57 0.55 0.51 0.48 0.46 0.41 0.45 0.51 0.46 0.42 0.40 0.32 0.28 0.36 0.45 0.53 0.56 0.59 0.65 0.68 0.59
0.38 0.45 0.52 0.57 0.58 0.66 0.72 0.84 0.93 1.00 1.00 0.98 0.92 0.87 0.88 0.92 0.92 0.84 0.79 0.75 0.69 0.62 0.57 0.55 0.53 0.51 0.49 0.44 0.40 0.57 0.63 0.46 0.33 0.24 0.23 0.26 0.29 0.33 0.37 0.43 0.51 0.57 0.64
0.36 0.45 0.52 0.59 0.66 0.66 0.74 0.83 0.83 0.82 0.83 0.78 0.79 0.79 0.84 0.86 0.87 0.85 0.83 0.80 0.74 0.69 0.62 0.56 0.55 0.54 0.55 0.55 0.48 0.45 0.49 0.48 0.52 0.36 0.20 0.19 0.19 0.20 0.21 0.25 0.33 0.40 0.48
0.37 0.46 0.54 0.58 0.69 0.73 0.74 0.81 0.79 0.75 0.73 0.75 0.81 0.85 0.85 0.87 0.89 0.84 0.81 0.80 0.77 0.71 0.68 0.64 0.59 0.60 0.61 0.60 0.56 0.51 0.48 0.42 0.44 0.54 0.36 0.22 0.21 0.20 0.19 0.21 0.23 0.28 0.36
0.36 0.45 0.51 0.57 0.67 0.77 0.76 0.80 0.79 0.75 0.72 0.78 0.83 0.91 0.91 0.92 0.95 0.92 0.83 0.81 0.76 0.68 0.65 0.68 0.66 0.62 0.61 0.60 0.58 0.57 0.59 0.60 0.50 0.54 0.49 0.30 0.26 0.25 0.24 0.23 0.24 0.27 0.34